Simultaneous Nadir Overpasses (SNOs) Predictions

Prediction of SNOs between NOAA-19 and TERRA Satellite Orbit:

Table of predicted SNOs for the next 14.0 days since TLE Epoch: 10/30/2013
Index Date (NOAA-19) Time (NOAA-19) Lat,Lon (NOAA-19) SZA (NOAA-19 ) Date (TERRA) Time (TERRA) Lat,Lon (TERRA) SZA (TERRA ) Distance(km) Time Diff (sec)
1 10/30/2013 15:04:16 69.91, -45.73 83.83 10/30/2013 15:05:23 69.94, -45.73 83.86 2.52 67
2 10/30/2013 15:55:16 -69.76, 121.75 96.32 10/30/2013 15:54:54 -69.77, 121.68 96.31 3.48 22
3 11/01/2013 19:48:30 70.07,-116.99 84.68 11/01/2013 19:49:41 70.02,-116.69 84.65 12.66 71
4 11/01/2013 20:39:29 -69.83, 50.61 95.54 11/01/2013 20:39:13 -69.80, 50.64 95.57 2.69 16
5 11/04/2013 00:32:46 70.33, 171.56 85.63 11/04/2013 00:33:57 70.19, 172.48 85.52 37.99 71
6 11/04/2013 01:23:40 -69.80, -20.38 94.88 11/04/2013 01:23:32 -69.82, -20.42 94.87 2.17 8
7 11/04/2013 02:14:21 68.79, 148.34 84.17 11/04/2013 02:13:15 68.82, 145.91 84.12 97.78 66
8 11/06/2013 05:17:02 70.61, 100.08 86.56 11/06/2013 05:18:10 70.52, 101.88 86.52 67.09 68
9 11/06/2013 06:07:52 -69.84, -91.47 94.18 11/06/2013 06:07:50 -69.87, -91.43 94.15 3.28 2
10 11/06/2013 06:58:37 69.07, 76.92 85.10 11/06/2013 06:57:28 69.15, 75.25 85.12 66.89 69
11 11/08/2013 10:01:18 70.89, 28.58 87.48 11/08/2013 10:02:24 70.77, 31.18 87.43 95.61 66
12 11/08/2013 10:52:03 -69.84,-162.49 93.53 11/08/2013 10:52:09 -69.85,-162.53 93.53 1.79 6
13 11/08/2013 11:42:53 69.36, 5.48
